Home   Weather   Breckenridge   Past weeks

Flag for USA Past Weather in Breckenridge, Colorado, USA — Yesterday and Last 2 Weeks

Now
59 °F

Sunny.


Feels Like: 57 °F
Forecast: 50 / 78 °F
Wind: 13 mph from Northwest

Location: Copper Mountain - Red Cliff Pass

Current Time: Aug 18, 2017 at 8:07:40 pm

Latest Report: Aug 18, 2017 at 7:35 pm


Visibility: 10 mi

Pressure: 30.68 "Hg (21.70 "Hg at 2921m altitude)

Humidity: 31%

Dew Point: 28 °F

Location of BreckenridgeLocation

Past Weather in Breckenridge — Graph

°F

Breckenridge Temperature Yesterday

Maximum temperature yesterday: 59 °F (at 3:15 pm)
Minimum temperature yesterday: 45 °F (at 1:56 am)
Average temperature yesterday: 50 °F

High & Low Weather Summary for the Past Weeks

 TemperatureHumidityPressure
High64 °F (Aug 18, 5:16 pm)87% (Aug 7, 6:34 pm)30.72 "Hg (Aug 7, 6:34 pm)
Low37 °F (Aug 16, 2:56 am)24% (Aug 18, 5:16 pm)30.38 "Hg (Aug 15, 3:56 am)
Average50 °F55%30.58 "Hg
* Reported Aug 3 6:15 pm — Aug 18 6:56 pm, Breckenridge. Weather by CustomWeather, © 2017

Note: Actual official high and low records may vary slightly from our data, if they occured in-between our weather recording intervals... More about our weather records

Advertising

Breckenridge Weather History for the Previous 24 Hours

Scroll right to see more
 ConditionsComfort  
Time TempWeatherWind HumidityBarometerVisibility
6:56 pm
Fri, Aug 18
59 °FSunny.13 mph29%30.68 "Hg10 mi
6:35 pm59 °FSunny.12 mph31%30.68 "Hg10 mi
6:15 pm59 °FSunny.13 mph31%30.68 "Hg10 mi
5:56 pm63 °FScattered clouds.15 mph25%30.68 "Hg10 mi
5:36 pm64 °FSunny.9 mph26%30.68 "Hg10 mi
5:16 pm64 °FScattered clouds.8 mph24%30.68 "Hg10 mi
4:53 pm61 °FPartly sunny.10 mph27%30.68 "Hg10 mi
4:36 pm61 °FPartly sunny.5 mph29%30.68 "Hg10 mi
4:16 pm61 °FBroken clouds.8 mph27%30.69 "Hg10 mi
3:56 pm63 °FBroken clouds.3 mph27%30.69 "Hg10 mi
3:36 pm61 °FSunny.13 mph27%30.69 "Hg10 mi
3:15 pm63 °FSunny.5 mph25%30.69 "Hg10 mi
2:56 pm61 °FScattered clouds.16 mph29%30.69 "Hg10 mi
2:36 pm61 °FBroken clouds.14 mph29%30.69 "Hg10 mi
2:16 pm61 °FBroken clouds.8 mph31%30.69 "Hg10 mi
1:56 pm59 °FBroken clouds.15 mph34%30.69 "Hg10 mi
12:35 pm59 °FScattered clouds.10 mph34%30.70 "Hg10 mi
11:55 am55 °FPartly sunny.9 mph41%30.72 "Hg10 mi
11:35 am59 °FBroken clouds.10 mph36%30.71 "Hg10 mi
11:16 am59 °FPartly sunny.6 mph36%30.71 "Hg10 mi
10:56 am55 °FPartly sunny.9 mph41%30.71 "Hg10 mi
10:35 am54 °FScattered clouds.15 mph41%30.71 "Hg10 mi
10:15 am54 °FScattered clouds.8 mph44%30.71 "Hg10 mi
9:55 am54 °FSunny.No wind44%30.70 "Hg10 mi
9:35 am54 °FSunny.6 mph44%30.70 "Hg10 mi
9:16 am54 °FSunny.6 mph44%30.69 "Hg10 mi
8:55 am54 °FSunny.8 mph44%30.69 "Hg10 mi
8:36 am52 °FSunny.8 mph44%30.69 "Hg10 mi
8:16 am52 °FSunny.7 mph47%30.69 "Hg10 mi
7:36 am48 °FSunny.7 mph50%30.68 "Hg10 mi
6:54 am45 °FSunny.8 mph61%30.67 "Hg10 mi
6:35 am46 °FSunny.10 mph53%30.66 "Hg10 mi
6:16 am46 °FClear.10 mph53%30.65 "Hg10 mi
5:56 am46 °FClear.13 mph53%30.65 "Hg10 mi
5:35 am46 °FPassing clouds.13 mph53%30.65 "Hg10 mi
5:16 am46 °FPassing clouds.12 mph53%30.64 "Hg10 mi
4:55 am46 °FPassing clouds.14 mph53%30.64 "Hg10 mi
4:36 am45 °FClear.13 mph57%30.64 "Hg10 mi
4:16 am46 °FClear.12 mph53%30.64 "Hg10 mi
3:56 am45 °FClear.12 mph57%30.64 "Hg10 mi
3:36 am45 °FClear.10 mph57%30.64 "Hg10 mi
3:16 am46 °FClear.9 mph53%30.64 "Hg10 mi
2:56 am45 °FClear.9 mph57%30.64 "Hg10 mi
2:36 am46 °FClear.9 mph53%30.64 "Hg10 mi
2:16 am45 °FClear.10 mph57%30.65 "Hg10 mi
1:56 am46 °FClear.8 mph53%30.65 "Hg10 mi
1:36 am46 °FClear.10 mph53%30.65 "Hg10 mi
11:56 pm
Thu, Aug 17
50 °FClear.15 mph43%30.65 "Hg10 mi
11:36 pm48 °FClear.16 mph46%30.65 "Hg10 mi
11:16 pm48 °FClear.14 mph50%30.66 "Hg10 mi
10:56 pm46 °FClear.13 mph53%30.66 "Hg10 mi
10:35 pm48 °FClear.10 mph50%30.66 "Hg10 mi
10:15 pm50 °FClear.7 mph47%30.67 "Hg10 mi
9:55 pm50 °FClear.14 mph47%30.67 "Hg10 mi
9:35 pm52 °FClear.14 mph47%30.66 "Hg10 mi
9:15 pm52 °FClear.15 mph47%30.66 "Hg10 mi
8:55 pm50 °FClear.16 mph50%30.65 "Hg10 mi
8:35 pm50 °FClear.15 mph50%30.64 "Hg10 mi
8:15 pm48 °FClear.16 mph54%30.64 "Hg10 mi
Weather by CustomWeather, © 2017

See weather overviewHow to use our weather pages